Tracking 26922 objects as of 1-Feb-2023
HD Live streaming from Space Station
objects crossing your sky now

CZ-6A DEB

Track CZ-6A DEB now!
10-day predictions


NORAD ID: 54349
Int'l Code: 2022-151CU
Perigee: 732.6 km
Apogee: 897.1 km
Inclination: 98.7 °
Period: 101.0 minutes
Semi major axis: 7185 km
RCS: Unknown
Launch date: November 11, 2022
Source: People's Republic of China (PRC)
Launch site: Taiyaun Space Center, China (TSC)

Note: This is SATELLITE DEBRIS
Your satellite tracking list
Your tracking list is empty




NASA's NSSDC Master Catalog

Two Line Element Set (TLE):
1 54349U 22151CU  23031.52977795  .00000658  00000-0  27837-3 0  9995
2 54349  98.7111  40.6494 0114465  94.6166 266.8098 14.25231168 10917
Source of the keplerian elements: AFSPC